Regional Weather Roundup
Issued by NWS

Home | Current Version | Previous Version | Graphics & Text | Print | Product List | Glossary On
Versions: 1 2 3 4 5 6 7 8 9 10 11 12 13 14 15 16 17 18 19 20 21 22 23 24 25 26 27 28 29 30 31 32 33 34 35 36 37 38 39 40 41 42 43 44 45 46 47 48 49 50
000
ASUS45 KABQ 300801
RWRNM
NEW MEXICO REGIONAL WEATHER ROUNDUP
NATIONAL WEATHER SERVICE ALBUQUERQUE NM
200 AM MDT MON MAY 30 2016

NOTE: "FAIR" MEANS FEW OR NO CLOUDS BELOW 12,000 FEET AGL WITH NO
       SIGNIFICANT WEATHER OR OBSTRUCTIONS TO VISION.

      THIS PRODUCT IS RELEASED AS TWO VERSIONS.  ONE VERSION NEAR
      THE TOP OF THE HOUR CONTAINING PRELIMINARY DATA FROM ALBUQUERQUE
      AND OTHER STATIONS.  A FINAL VERSION WITH ADDITIONAL DATA IS
      ISSUED ABOUT 10 MINUTES AFTER THE HOUR.

NMZ501-503-504-510>518-300900-
NORTHWEST PLATEAU/NORTHCENTRAL MOUNTAINS

CITY           SKY/WX    TMP DP  RH WIND       PRES   REMARKS
FARMINGTON     FAIR      50  19  29 CALM      30.06R
SANTA FE       FAIR      57  44  62 SE18G26   30.15R
TAOS           FAIR      54  34  47 NE7       30.19F

$$
NMZ402-403-502-505>509-300900-
WESTCENTRAL MOUNTAINS/SOUTHWEST MOUNTAINS

CITY           SKY/WX    TMP DP  RH WIND       PRES   REMARKS
GALLUP         FAIR      45  20  36 NE3       30.16S
GRANTS         FAIR      43  13  29 NW7       30.18S
SILVER CITY      N/A     59  19  21 NW3       30.14S

$$
NMZ407-409-411-412-300900-
SOUTHERN DESERTS

CITY           SKY/WX    TMP DP  RH WIND       PRES   REMARKS
LORDSBURG      FAIR      70  32  24 N5        30.05F
DEMING         FAIR      63  35  35 CALM      30.05S
HOLLOMAN AFB   FAIR      74  34  23 S8        30.01S
ALAMOGORDO     FAIR      72  32  23 S7        30.02F
T OR C         FAIR      67  32  27 SW7       30.05S

$$
NMZ519>523-300900-
CENTRAL VALLEYS/CENTRAL HIGHLANDS

CITY           SKY/WX    TMP DP  RH WIND       PRES   REMARKS
ALBUQUERQUE    MOCLDY    64  16  15 SE3       30.08S
CLINES CORNERS CLOUDY    48  45  89 E15       30.21F
BELEN          NOT AVBL
SOCORRO        NOT AVBL

$$
NMZ524>526-539-540-300900-
SOUTHCENTRAL MOUNTAINS

CITY           SKY/WX    TMP DP  RH WIND       PRES   REMARKS
RUIDOSO        NOT AVBL

$$
NMZ527>531-300900-
NORTHEAST HIGHLANDS/NORTHEAST PLAINS

CITY           SKY/WX    TMP DP  RH WIND       PRES   REMARKS
LAS VEGAS      CLOUDY    49  45  86 SW7       30.27S
RATON          CLOUDY    51  46  83 SW6       30.21F
CLAYTON        FAIR      51  48  89 W15       30.12F

$$
NMZ532>537-300900-
EASTCENTRAL PLAINS

CITY           SKY/WX    TMP DP  RH WIND       PRES   REMARKS
TUCUMCARI      FAIR      51  49  92 NW8       30.13F
CANNON AFB     FAIR      49  49 100 W1        30.12F
CLOVIS AIRPORT FAIR      48  45  87 SW9       30.12R

$$
NMZ028-029-538-300900-
SOUTHEAST PLAINS

CITY           SKY/WX    TMP DP  RH WIND       PRES   REMARKS
ROSWELL        CLOUDY    62  51  67 S6        30.11F
ARTESIA        CLOUDY    61  55  82 S6        30.12S
CARLSBAD       MOCLDY    61  54  77 E7        30.07F
HOBBS          MOCLDY    57  57 100 E9        30.12S


$$




USA.gov is the U.S. government's official web portal to all federal, state and local government web resources and services.